User: anonymous   Login
Location: Newark
(32.8369°N, 35.2736°E)
Time: 12:46:28
(UTC+00:00)
Language:

LightSail 2 - Orbit

View from above orbital plane
View from above orbital plane
View from above satellite
View from above satellite

Ground track
Ground track

The orbit data is extracted from the following two-line orbital elements,

1 44420U 19036AC  19339.84780100 +.00003048 +00000-0 +65966-3 0  9996
2 44420 024.0076 255.6337 0024870 172.5204 187.5674 14.53815378021958
Epoch (UTC): 05 December 2019 20:20:50
Eccentricity: 0.0024870
inclination: 24.0076°
perigee height: 695 km
apogee height: 731 km
right ascension of ascending node: 255.6337°
argument of perigee: 172.5204°
revolutions per day: 14.53815378
mean anomaly at epoch: 187.5674°
orbit number at epoch: 2195

The dashed part of the orbit path shows where the satellite is in the earth's shadow,  

DLR